Skip Page Navigation
NASA JPL Caltech
NASA Logo - Jet Propulsion Laboratory + View the NASA Portal
+ Center for Near-Earth Object Studies
JPL Home Earth Solar System Stars & Galaxies Technology
JPL Solar System Dynamics
BODIES ORBITS EPHEMERIDES TOOLS PHYSICAL DATA DISCOVERY FAQ SITE MAP
JPL Small-Body Database Browser
Search: [ help ]  
1439 Vogtia (1937 TE)
Classification: Outer Main-belt Asteroid          SPK-ID: 2001439
Ephemeris | Orbit Diagram | Orbital Elements | Mission Design | Physical Parameters | Discovery Circumstances | Close-Approach Data ]

[ hide orbit diagram ]

For accurate long-term ephemerides, please instead use our Horizons system.This orbit viewer was implemented using two-body methods, and hence should not be used for determining accurate long-term trajectories (over several years or decades) or planetary encounter circumstances.


[ revert to old Java-based viewer ]

Orbital Elements at Epoch 2459000.5 (2020-May-31.0) TDB
Reference: JPL 33 (heliocentric ecliptic J2000)
 Element Value Uncertainty (1-sigma)   Units 
e .1166793073179465 3.617e-08  
a 3.997885643138032 2.635e-08 au
q 3.531415115560324 1.446e-07 au
i 4.203092922572018 3.9321e-06 deg
node 35.55147117636395 5.4565e-05 deg
peri 101.7335824098568 5.7432e-05 deg
M 38.64654842811343 1.6567e-05 deg
tp 2458687.061608762800
(2019-Jul-22.56160876)
0.00013447 TDB
period 2919.73864251505
7.99
2.8865e-05
7.903e-08
d
yr
n .1232987072054838 1.219e-09 deg/d
Q 4.464356170715742 2.9424e-08 au
  Orbit Determination Parameters
   # obs. used (total)      2877  
   data-arc span      30199 days (82.68 yr)  
   first obs. used      1937-10-11  
   last obs. used      2020-06-16  
   planetary ephem.      DE431  
   SB-pert. ephem.      SB431-N16  
   condition code      0  
   norm. resid. RMS      .45877  
   source      ORB  
   producer      Otto Matic  
   solution date      2020-Jun-23 15:31:22  

Additional Information
 Earth MOID = 2.54855 au 
 Jupiter MOID = .603454 au 
 T_jup = 3.038 
[ show covariance matrix ]

Ephemeris | Orbit Diagram | Orbital Elements | Mission Design | Physical Parameters | Discovery Circumstances | Close-Approach Data ]

Physical Parameter Table
Parameter Symbol Value Units Sigma Reference Notes
absolute magnitude H 10.6   n/a MPO473783 IRAS observations used: 3
diameter diameter 50.561 km 0.568 urn:nasa:pds:neowise_diameters_albedos::2.0[hildas] (http://adsabs.harvard.edu/abs/2012ApJ...744..197G)  
rotation period rot_per 12.898 h n/a LCDB (Rev. 2019-August); Warner et al., 2009 Published Reference List:
[Dahlgren, M.; Lahulla, J.F.; Lagerkvist, C.-I.; Lagerros, J.; et al. (1998) Icarus 133, 247-285.]
[Warner, B.D.; Stephens, R.D.; Coley, D.R. (2017) Minor Planet Bull. 44, 130-137.]
[Warner, B.D.; Stephens, R.D.; Coley, D.R. (2018) Minor Planet Bull. 45, 147-161.]
geometric albedo albedo 0.046   0.012 urn:nasa:pds:neowise_diameters_albedos::2.0[hildas] (http://adsabs.harvard.edu/abs/2012ApJ...744..197G)  
B-V BV 0.750   0.045 EAR-A-5-DDR-UBV-MEAN-VALUES-V1.2 #obs=1; phase=9.97 deg.
U-B UB 0.320   0.071 EAR-A-5-DDR-UBV-MEAN-VALUES-V1.2 #obs=1; phase=9.97 deg.
Tholen spectral type spec_T XFU   n/a EAR-A-5-DDR-TAXONOMY-V4.0 used 7 color indices

1439 Vogtia (1937 TE)          Discovered 1937-Oct-11 by Reinmuth, K. at Heidelberg
Reference: DISCOVERY.DBLast Updated: 2003-08-29

[ hide close-approach data ]
Close-Approach Data   ...sorted by Date/Time (TDB)
Date/Time (TDB) Time Uncertainty
(days_HH:MM)
Body Nominal Distance (au) Minimum Distance (au) Maximum Distance (au) V-relative (km/s) V-infinity (km/s) JD (TDB) Time Uncertainty (minutes) Semi-major axis (km) Semi-minor axis (km) range-LOV angle (deg) N-sigma BP Orbit Ref. Reference Modified
1908-Nov-18 00:45 00:01 Jupiter 1.93724071844106 1.93724023265726 1.93724120422486 4.41457356309328 4.31439415192647 2418263.531371730 1.28378773634016 46.319042001387 22.0567373671602 -87.8410466168128 4190502.04451149 T 33 CATAB v2.0f-lin.ifort 2020-Jun-23 15:31:35 2020-Jun-23 15:31
1932-Feb-19 17:10 00:02 Jupiter 1.85083324697587 1.85083271289939 1.85083378105234 4.11306029253434 4.00024714261429 2426757.215235380 1.60136561671403 45.7219075973393 21.7795389837255 -76.0170868653589 3776987.53483132 T 33 CATAB v2.0f-lin.ifort 2020-Jun-23 15:31:35 2020-Jun-23 15:31
1955-Sep-29 04:08 00:02 Jupiter 1.8141907141747 1.81419012693272 1.81419130141677 3.99785975292015 3.87931799437625 2435379.672035865 1.62141554263303 44.9255107286284 22.7288053713377 -70.862992504605 3478572.03452698 T 33 CATAB v2.0f-lin.ifort 2020-Jun-23 15:31:35 2020-Jun-23 15:31
1979-Sep-20 07:43 00:01 Jupiter 1.82376502327039 1.82376450792356 1.82376553861722 4.0568721866691 3.94072829797399 2444136.821410293 1.16441849737502 41.3114759790345 21.6347408375762 -77.4374326035347 3839414.11177567 T 33 CATAB v2.0f-lin.ifort 2020-Jun-23 15:31:35 2020-Jun-23 15:31
2003-Dec-04 08:59 < 00:01 Jupiter 1.84547312871274 1.84547264636743 1.84547361105795 4.12388013131813 4.01103990819252 2452977.874373265 0.445376042441033 37.7957277998973 21.3834491707749 -85.6668063998911 4020043.62543837 T 33 CATAB v2.0f-lin.ifort 2020-Jun-23 15:31:35 2020-Jun-23 15:31
2028-Mar-04 11:09 < 00:01 Jupiter 1.8357420023347 1.83574149195577 1.83574251271353 4.03726250496101 3.92131054366074 2461834.964448284 0.495314537840965 39.8401017507252 22.5181502632156 87.4368345567363 3767083.9140774 T 33 CATAB v2.0f-lin.ifort 2020-Jun-23 15:31:35 2020-Jun-23 15:31
2052-Apr-03 08:28 00:01 Jupiter 1.81368187980758 1.81368131392384 1.81368244569122 3.89583219980141 3.77405247088587 2470630.852598467 1.11250663391648 47.9975441778829 23.5296181883163 80.2839825135909 3425596.21929953 T 33 CATAB v2.0f-lin.ifort 2020-Jun-23 15:31:35 2020-Jun-23 15:31
2076-Jan-02 15:32 00:01 Jupiter 1.84050770214308 1.84050717869152 1.84050822559464 3.94584747823699 3.82743904479093 2479305.146876818 1.3578431429428 51.3812537727222 21.8726327524554 82.2067341919488 3685411.79193992 T 33 CATAB v2.0f-lin.ifort 2020-Jun-23 15:31:35 2020-Jun-23 15:31
2099-May-19 05:33 00:01 Jupiter 1.91394653990433 1.91394613634445 1.91394694346421 4.238563601107 4.13283385583196 2487842.731596743 1.25832001807487 48.3027994560949 18.1336392064289 -88.7134072308395 4830313.7901087 T 33 CATAB v2.0f-lin.ifort 2020-Jun-23 15:31:35 2020-Jun-23 15:31
2122-Jun-28 12:45 00:01 Jupiter 1.99283066880008 1.99283022475963 1.99283111284052 4.62575181271967 4.53293614573888 2496283.031412834 1.20668386864682 44.0832587830752 19.8742074504426 -82.473273070442 4846939.33985939 T 33 CATAB v2.0f-lin.ifort 2020-Jun-23 15:31:35 2020-Jun-23 15:31
2168-Jul-26 05:59 00:02 Jupiter 1.94402137147247 1.94402088175693 1.94402186118812 4.6742665637723 4.58010427258563 2513112.749491631 1.69096419148247 41.7661393525402 18.6862269899176 -68.9439885471695 5175576.07145019 T 33 CATAB v2.0f-lin.ifort 2020-Jun-23 15:31:35 2020-Jun-23 15:31
2191-Nov-02 17:51 00:02 Jupiter 1.86110827431871 1.86110763955997 1.86110890907756 4.41946147837433 4.31525262529268 2521612.243749867 1.78830729094277 43.3401103662357 23.7527097578567 -60.9727676905153 3968326.04275708 T 33 CATAB v2.0f-lin.ifort 2020-Jun-23 15:31:35 2020-Jun-23 15:31

Alternate Designations
 1937 TE = 1953 UJ = 1957 HP = 1964 FC 
Ephemeris | Orbit Diagram | Orbital Elements | Mission Design | Physical Parameters | Discovery Circumstances | Close-Approach Data ]
ABOUT SSD CREDITS/AWARDS PRIVACY/COPYRIGHT GLOSSARY LINKS
FirstGov 2020-Aug-06 14:14 UT
(server date/time)  
NASA Home Page
Site Manager:   Ryan S. Park
Webmaster  Alan B. Chamberlin